| time (UTC) | temp F | wind direction | speed knots | gust knots | rain 1hr in | rain 24hr in | rain mn in | humidity % | barometer mb |
| 20260506103047 | 51 | 0 | 0.0 | 1.7 | 0.00 | 0.00 | 0.00 | 92 | 1016.9 |
| 20260506102534 | 51 | 343 | 0.0 | 1.7 | 0.00 | 0.00 | 0.00 | 92 | 1016.8 |
| 20260506102037 | 51 | 0 | 0.0 | 0.9 | 0.00 | 0.00 | 0.00 | 91 | 1016.8 |
| 20260506101544 | 52 | 0 | 0.0 | 0.9 | 0.00 | 0.00 | 0.00 | 92 | 1016.8 |
| 20260506101034 | 52 | 0 | 0.0 | 0.9 | 0.00 | 0.00 | 0.00 | 92 | 1016.8 |
| 20260506100534 | 52 | 0 | 0.0 | 1.7 | 0.00 | 0.00 | 0.00 | 92 | 1016.9 |
| 20260506100044 | 52 | 0 | 0.0 | 1.7 | 0.00 | 0.00 | 0.00 | 92 | 1017.0 |
| 20260506095534 | 52 | 0 | 0.0 | 1.7 | 0.00 | 0.00 | 0.00 | 92 | 1016.9 |
| 20260506095037 | 52 | 0 | 0.0 | 1.7 | 0.00 | 0.00 | 0.00 | 92 | 1017.0 |
| 20260506094541 | 52 | 343 | 0.0 | 1.7 | 0.00 | 0.00 | 0.00 | 92 | 1017.0 |
| 20260506094039 | 52 | 0 | 0.0 | 1.7 | 0.00 | 0.00 | 0.00 | 92 | 1017.0 |
| 20260506093534 | 52 | 342 | 0.0 | 2.6 | 0.00 | 0.00 | 0.00 | 92 | 1017.1 |
| 20260506093051 | 52 | 332 | 0.9 | 2.6 | 0.00 | 0.00 | 0.00 | 92 | 1017.2 |
| 20260506092534 | 52 | 344 | 0.0 | 2.6 | 0.00 | 0.00 | 0.00 | 92 | 1017.1 |
| 20260506092034 | 52 | 333 | 0.0 | 3.5 | 0.00 | 0.00 | 0.00 | 93 | 1017.2 |
| 20260506091544 | 52 | 0 | 0.0 | 3.5 | 0.00 | 0.00 | 0.00 | 93 | 1017.3 |
| 20260506091034 | 52 | 341 | 0.9 | 3.5 | 0.00 | 0.00 | 0.00 | 93 | 1017.3 |
| 20260506090534 | 52 | 345 | 0.9 | 3.5 | 0.00 | 0.00 | 0.00 | 93 | 1017.2 |
| 20260506090045 | 52 | 336 | 0.0 | 3.5 | 0.00 | 0.00 | 0.00 | 93 | 1017.3 |
| 20260506085534 | 52 | 342 | 0.0 | 3.5 | 0.00 | 0.00 | 0.00 | 93 | 1017.3 |
| 20260506085035 | 52 | 342 | 0.9 | 3.5 | 0.00 | 0.00 | 0.00 | 93 | 1017.2 |
| 20260506084545 | 52 | 0 | 0.0 | 3.5 | 0.00 | 0.00 | 0.00 | 93 | 1017.3 |
| 20260506084036 | 52 | 0 | 0.9 | 3.5 | 0.00 | 0.00 | 0.00 | 93 | 1017.5 |
| 20260506083535 | 52 | 0 | 0.9 | 2.6 | 0.00 | 0.00 | 0.00 | 93 | 1017.4 |
| 20260506083042 | 52 | 0 | 0.0 | 1.7 | 0.00 | 0.00 | 0.00 | 93 | 1017.4 |
| 20260506082536 | 52 | 335 | 0.0 | 2.6 | 0.00 | 0.00 | 0.00 | 92 | 1017.4 |
| 20260506082035 | 52 | 0 | 0.0 | 2.6 | 0.00 | 0.00 | 0.00 | 92 | 1017.4 |
| 20260506081549 | 52 | 0 | 0.9 | 3.5 | 0.00 | 0.00 | 0.00 | 93 | 1017.4 |
| 20260506081034 | 52 | 0 | 0.0 | 3.5 | 0.00 | 0.00 | 0.00 | 93 | 1017.5 |
| 20260506080534 | 52 | 0 | 0.9 | 3.5 | 0.00 | 0.00 | 0.00 | 93 | 1017.5 |
| 20260506073043 | 52 | 0 | 0.0 | 1.7 | 0.00 | 0.00 | 0.00 | 94 | 1017.3 |
| 20260506072534 | 52 | 89 | 0.0 | 1.7 | 0.00 | 0.00 | 0.00 | 94 | 1017.2 |
| 20260506072034 | 52 | 0 | 0.0 | 1.7 | 0.00 | 0.00 | 0.00 | 94 | 1017.3 |
| 20260506071545 | 52 | 0 | 0.0 | 2.6 | 0.00 | 0.00 | 0.00 | 93 | 1017.1 |
| 20260506071038 | 52 | 0 | 0.0 | 2.6 | 0.00 | 0.00 | 0.00 | 93 | 1017.2 |
| 20260506070536 | 52 | 89 | 0.0 | 2.6 | 0.00 | 0.00 | 0.00 | 93 | 1017.2 |
| 20260506062034 | 51 | 89 | 0.0 | 1.7 | 0.00 | 0.00 | 0.00 | 95 | 1016.5 |
| 20260506061544 | 51 | 0 | 0.0 | 0.9 | 0.00 | 0.00 | 0.00 | 94 | 1016.6 |
| 20260506061035 | 51 | 0 | 0.0 | 0.9 | 0.00 | 0.00 | 0.00 | 93 | 1016.6 |
| 20260506060536 | 51 | 0 | 0.0 | 1.7 | 0.00 | 0.00 | 0.00 | 93 | 1016.5 |
| 20260506051036 | 52 | 0 | 0.0 | 1.7 | 0.00 | 0.00 | 0.00 | 91 | 1016.1 |
| 20260506050536 | 52 | 0 | 0.0 | 1.7 | 0.00 | 0.00 | 0.00 | 90 | 1016.1 |
| 20260506045036 | 53 | 0 | 0.0 | 0.0 | 0.00 | 0.00 | 0.00 | 89 | 1016.1 |
| 20260506044543 | 53 | 0 | 0.0 | 0.9 | 0.00 | 0.00 | 0.00 | 89 | 1016.0 |
| 20260506044035 | 53 | 0 | 0.0 | 1.7 | 0.00 | 0.00 | 0.00 | 89 | 1015.9 |
| 20260506043537 | 54 | 0 | 0.0 | 1.7 | 0.00 | 0.00 | 0.00 | 88 | 1015.9 |
| 20260506043043 | 54 | 89 | 0.0 | 1.7 | 0.00 | 0.00 | 0.00 | 88 | 1015.9 |
| 20260506042534 | 55 | 0 | 0.0 | 1.7 | 0.00 | 0.00 | 0.00 | 88 | 1015.8 |
| 20260506042035 | 55 | 89 | 0.0 | 1.7 | 0.00 | 0.00 | 0.00 | 88 | 1015.8 |
| 20260506041546 | 55 | 89 | 0.0 | 1.7 | 0.00 | 0.00 | 0.00 | 88 | 1015.8 |
| 20260506041034 | 55 | 89 | 0.0 | 5.2 | 0.00 | 0.00 | 0.00 | 88 | 1015.8 |
| 20260506040534 | 55 | 89 | 0.0 | 5.2 | 0.00 | 0.00 | 0.00 | 88 | 1015.8 |
| 20260506040046 | 55 | 106 | 0.9 | 5.2 | 0.00 | 0.00 | 0.00 | 88 | 1015.6 |
| 20260506035535 | 55 | 86 | 0.9 | 3.5 | 0.00 | 0.00 | 0.00 | 87 | 1015.5 |
| 20260506035035 | 55 | 0 | 0.9 | 3.5 | 0.00 | 0.00 | 0.00 | 87 | 1015.4 |
| 20260506034543 | 55 | 0 | 0.9 | 3.5 | 0.00 | 0.00 | 0.00 | 86 | 1015.3 |
| 20260506034036 | 55 | 0 | 0.9 | 2.6 | 0.00 | 0.00 | 0.00 | 86 | 1015.2 |
| 20260506033535 | 56 | 0 | 0.0 | 2.6 | 0.00 | 0.00 | 0.00 | 85 | 1015.1 |
| 20260506033039 | 56 | 99 | 1.7 | 2.6 | 0.00 | 0.00 | 0.00 | 84 | 1015.0 |
| 20260506032535 | 57 | 99 | 0.0 | 1.7 | 0.00 | 0.00 | 0.00 | 82 | 1015.0 |
| 20260506032035 | 57 | 0 | 0.0 | 1.7 | 0.00 | 0.00 | 0.00 | 81 | 1014.9 |
| 20260506031543 | 58 | 0 | 0.9 | 1.7 | 0.00 | 0.00 | 0.00 | 81 | 1014.8 |
| 20260506031035 | 58 | 0 | 0.0 | 0.9 | 0.00 | 0.00 | 0.00 | 80 | 1014.7 |
| 20260506030535 | 59 | 0 | 0.0 | 2.6 | 0.00 | 0.00 | 0.00 | 79 | 1014.7 |
| 20260506030044 | 59 | 0 | 0.0 | 2.6 | 0.00 | 0.00 | 0.00 | 79 | 1014.7 |
| 20260506025534 | 60 | 99 | 0.9 | 3.5 | 0.00 | 0.00 | 0.00 | 79 | 1014.6 |
| 20260506025035 | 60 | 99 | 0.0 | 3.5 | 0.00 | 0.00 | 0.00 | 78 | 1014.5 |
| 20260506024551 | 60 | 99 | 0.9 | 5.2 | 0.00 | 0.00 | 0.00 | 77 | 1014.4 |
| 20260506024035 | 61 | 99 | 1.7 | 5.2 | 0.00 | 0.00 | 0.00 | 77 | 1014.2 |
| 20260506023535 | 61 | 99 | 1.7 | 5.2 | 0.00 | 0.00 | 0.00 | 76 | 1014.3 |
| 20260506023052 | 62 | 86 | 0.0 | 2.6 | 0.00 | 0.00 | 0.00 | 75 | 1014.2 |
| 20260506022536 | 62 | 0 | 0.0 | 2.6 | 0.00 | 0.00 | 0.00 | 75 | 1014.2 |
| 20260506022035 | 62 | 0 | 0.0 | 3.5 | 0.00 | 0.00 | 0.00 | 75 | 1014.1 |
| 20260506021548 | 62 | 219 | 0.0 | 3.5 | 0.00 | 0.00 | 0.00 | 74 | 1014.0 |
| 20260506021035 | 63 | 232 | 0.9 | 2.6 | 0.00 | 0.00 | 0.00 | 74 | 1014.0 |
| 20260506020535 | 63 | 0 | 0.9 | 2.6 | 0.00 | 0.00 | 0.00 | 73 | 1014.1 |
| 20260506020053 | 63 | 142 | 0.9 | 5.2 | 0.00 | 0.00 | 0.00 | 73 | 1014.1 |
| 20260506015535 | 63 | 200 | 0.9 | 5.2 | 0.00 | 0.00 | 0.00 | 73 | 1014.0 |
| 20260506015035 | 64 | 0 | 0.9 | 5.2 | 0.00 | 0.00 | 0.00 | 73 | 1013.9 |
| 20260506014544 | 64 | 0 | 0.0 | 3.5 | 0.00 | 0.00 | 0.00 | 73 | 1013.8 |
| 20260506014035 | 64 | 203 | 0.9 | 6.1 | 0.00 | 0.00 | 0.00 | 73 | 1013.9 |
| 20260506013535 | 64 | 194 | 0.9 | 6.1 | 0.00 | 0.00 | 0.00 | 73 | 1013.8 |
| 20260506013042 | 64 | 151 | 1.7 | 6.1 | 0.00 | 0.00 | 0.00 | 73 | 1013.8 |
| 20260506012535 | 64 | 220 | 1.7 | 5.2 | 0.00 | 0.00 | 0.00 | 74 | 1013.9 |
| 20260506012035 | 64 | 213 | 0.9 | 7.0 | 0.00 | 0.00 | 0.00 | 73 | 1014.0 |
| 20260506011602 | 64 | 165 | 1.7 | 7.0 | 0.00 | 0.00 | 0.00 | 73 | 1013.8 |
| 20260506011036 | 64 | 0 | 1.7 | 7.0 | 0.00 | 0.00 | 0.00 | 72 | 1013.9 |
| 20260506010535 | 65 | 183 | 1.7 | 7.0 | 0.00 | 0.00 | 0.00 | 72 | 1013.8 |
| 20260506010047 | 64 | 161 | 1.7 | 7.0 | 0.00 | 0.00 | 0.00 | 72 | 1013.9 |
| 20260506005536 | 64 | 123 | 1.7 | 7.0 | 0.00 | 0.00 | 0.00 | 73 | 1013.7 |
| 20260506005036 | 64 | 0 | 3.5 | 10.4 | 0.00 | 0.00 | 0.00 | 73 | 1014.0 |
| 20260506004558 | 64 | 0 | 4.3 | 10.4 | 0.00 | 0.00 | 0.00 | 73 | 1013.8 |
| 20260506004035 | 63 | 232 | 4.3 | 9.6 | 0.00 | 0.00 | 0.00 | 75 | 1013.8 |
| 20260506003535 | 62 | 0 | 2.6 | 8.7 | 0.00 | 0.00 | 0.00 | 75 | 1013.6 |
| 20260506003044 | 62 | 199 | 3.5 | 9.6 | 0.00 | 0.00 | 0.00 | 75 | 1013.6 |
| 20260506002535 | 63 | 209 | 3.5 | 9.6 | 0.00 | 0.00 | 0.00 | 74 | 1013.7 |
| 20260506002036 | 63 | 264 | 3.5 | 10.4 | 0.00 | 0.00 | 0.00 | 74 | 1013.6 |
| 20260506001544 | 64 | 214 | 4.3 | 10.4 | 0.00 | 0.00 | 0.00 | 73 | 1013.6 |
| 20260506001035 | 64 | 248 | 3.5 | 9.6 | 0.00 | 0.00 | 0.00 | 72 | 1013.6 |
| 20260506000535 | 65 | 226 | 4.3 | 10.4 | 0.00 | 0.00 | 0.00 | 71 | 1013.6 |
| 20260506000112 | 66 | 225 | 3.5 | 11.3 | 0.00 | 0.00 | 0.00 | 70 | 1013.5 |
| 20260505235535 | 67 | 244 | 5.2 | 11.3 | 0.00 | 0.00 | 0.00 | 68 | 1013.4 |
| 20260505235038 | 68 | 223 | 4.3 | 11.3 | 0.00 | 0.00 | 0.00 | 67 | 1013.3 |
| 20260505234548 | 69 | 236 | 3.5 | 11.3 | 0.00 | 0.00 | 0.00 | 65 | 1013.4 |
| 20260505234035 | 69 | 225 | 5.2 | 11.3 | 0.00 | 0.00 | 0.00 | 65 | 1013.3 |
| 20260505233535 | 69 | 238 | 5.2 | 12.2 | 0.00 | 0.00 | 0.00 | 66 | 1013.3 |
| 20260505233043 | 68 | 202 | 4.3 | 13.0 | 0.00 | 0.00 | 0.00 | 68 | 1013.3 |
| 20260505232536 | 67 | 221 | 4.3 | 13.0 | 0.00 | 0.00 | 0.00 | 69 | 1013.4 |
| 20260505232038 | 66 | 227 | 5.2 | 13.0 | 0.00 | 0.00 | 0.00 | 68 | 1013.4 |
| 20260505231543 | 66 | 207 | 4.3 | 13.0 | 0.00 | 0.00 | 0.00 | 68 | 1013.3 |
| 20260505231035 | 67 | 259 | 4.3 | 13.0 | 0.00 | 0.00 | 0.00 | 67 | 1013.3 |
| 20260505230535 | 67 | 236 | 4.3 | 11.3 | 0.00 | 0.00 | 0.00 | 66 | 1013.4 |
| 20260505225537 | 68 | 254 | 4.3 | 12.2 | 0.00 | 0.00 | 0.00 | 64 | 1013.4 |
| 20260505225037 | 69 | 238 | 5.2 | 12.2 | 0.00 | 0.00 | 0.00 | 62 | 1013.4 |
| 20260505224544 | 69 | 258 | 4.3 | 13.9 | 0.00 | 0.00 | 0.00 | 64 | 1013.5 |
| 20260505224034 | 69 | 257 | 6.1 | 13.9 | 0.00 | 0.00 | 0.00 | 65 | 1013.6 |
| 20260505223534 | 68 | 227 | 5.2 | 13.0 | 0.00 | 0.00 | 0.00 | 67 | 1013.6 |
| 20260505223044 | 68 | 184 | 4.3 | 11.3 | 0.00 | 0.00 | 0.00 | 67 | 1013.6 |
| 20260505222535 | 67 | 242 | 4.3 | 12.2 | 0.00 | 0.00 | 0.00 | 66 | 1013.8 |
| 20260505222035 | 67 | 229 | 5.2 | 13.0 | 0.00 | 0.00 | 0.00 | 68 | 1013.8 |
| 20260505221549 | 67 | 248 | 4.3 | 13.9 | 0.00 | 0.00 | 0.00 | 68 | 1013.7 |
| 20260505221036 | 67 | 276 | 6.1 | 13.9 | 0.00 | 0.00 | 0.00 | 66 | 1013.9 |
| 20260505220535 | 67 | 202 | 5.2 | 12.2 | 0.00 | 0.00 | 0.00 | 67 | 1013.9 |
| 20260505220044 | 66 | 191 | 5.2 | 13.9 | 0.00 | 0.00 | 0.00 | 69 | 1014.0 |
| 20260505215535 | 66 | 231 | 6.1 | 14.8 | 0.00 | 0.00 | 0.00 | 67 | 1014.0 |
| 20260505215035 | 66 | 198 | 6.1 | 14.8 | 0.00 | 0.00 | 0.00 | 66 | 1014.0 |
| 20260505214549 | 67 | 228 | 6.1 | 12.2 | 0.00 | 0.00 | 0.00 | 64 | 1014.1 |
| 20260505214035 | 68 | 246 | 4.3 | 12.2 | 0.00 | 0.00 | 0.00 | 63 | 1014.1 |
| 20260505213534 | 68 | 191 | 4.3 | 13.9 | 0.00 | 0.00 | 0.00 | 60 | 1014.1 |
| 20260505213044 | 68 | 224 | 6.1 | 13.9 | 0.00 | 0.00 | 0.00 | 61 | 1014.2 |
| 20260505212535 | 68 | 225 | 5.2 | 13.0 | 0.00 | 0.00 | 0.00 | 62 | 1014.3 |
| 20260505212035 | 67 | 262 | 4.3 | 11.3 | 0.00 | 0.00 | 0.00 | 65 | 1014.3 |
| 20260505211549 | 67 | 221 | 5.2 | 11.3 | 0.00 | 0.00 | 0.00 | 64 | 1014.2 |
| 20260505211035 | 67 | 211 | 5.2 | 11.3 | 0.00 | 0.00 | 0.00 | 66 | 1014.3 |
| 20260505210535 | 66 | 240 | 4.3 | 11.3 | 0.00 | 0.00 | 0.00 | 67 | 1014.3 |
| 20260505210051 | 66 | 250 | 4.3 | 12.2 | 0.00 | 0.00 | 0.00 | 64 | 1014.4 |
| 20260505205534 | 66 | 225 | 4.3 | 12.2 | 0.00 | 0.00 | 0.00 | 63 | 1014.4 |
| 20260505205039 | 67 | 265 | 4.3 | 11.3 | 0.00 | 0.00 | 0.00 | 63 | 1014.3 |
| 20260505204549 | 67 | 240 | 4.3 | 11.3 | 0.00 | 0.00 | 0.00 | 62 | 1014.2 |
| 20260505204037 | 67 | 265 | 5.2 | 11.3 | 0.00 | 0.00 | 0.00 | 64 | 1014.3 |
| 20260505203538 | 67 | 204 | 5.2 | 12.2 | 0.00 | 0.00 | 0.00 | 64 | 1014.2 |
| 20260505203056 | 66 | 223 | 5.2 | 12.2 | 0.00 | 0.00 | 0.00 | 65 | 1014.2 |
| 20260505202534 | 65 | 205 | 3.5 | 10.4 | 0.00 | 0.00 | 0.00 | 66 | 1014.4 |
| 20260505202037 | 65 | 234 | 5.2 | 12.2 | 0.00 | 0.00 | 0.00 | 65 | 1014.3 |
| 20260505201548 | 66 | 236 | 5.2 | 12.2 | 0.00 | 0.00 | 0.00 | 64 | 1014.3 |
| 20260505201037 | 67 | 194 | 2.6 | 13.0 | 0.00 | 0.00 | 0.00 | 61 | 1014.4 |
| 20260505200537 | 68 | 273 | 4.3 | 13.0 | 0.00 | 0.00 | 0.00 | 61 | 1014.4 |
| 20260505200047 | 68 | 242 | 4.3 | 11.3 | 0.00 | 0.00 | 0.00 | 61 | 1014.4 |
| 20260505195533 | 68 | 239 | 4.3 | 8.7 | 0.00 | 0.00 | 0.00 | 59 | 1014.5 |
| 20260505195034 | 68 | 302 | 3.5 | 12.2 | 0.00 | 0.00 | 0.00 | 62 | 1014.4 |
| 20260505194605 | 68 | 274 | 5.2 | 13.9 | 0.00 | 0.00 | 0.00 | 58 | 1014.5 |
| 20260505194035 | 68 | 256 | 5.2 | 13.9 | 0.00 | 0.00 | 0.00 | 60 | 1014.4 |
| 20260505193535 | 67 | 250 | 3.5 | 10.4 | 0.00 | 0.00 | 0.00 | 63 | 1014.5 |
| 20260505193053 | 66 | 220 | 3.5 | 12.2 | 0.00 | 0.00 | 0.00 | 65 | 1014.4 |
| 20260505192534 | 65 | 271 | 3.5 | 12.2 | 0.00 | 0.00 | 0.00 | 63 | 1014.6 |
| 20260505192038 | 66 | 256 | 3.5 | 9.6 | 0.00 | 0.00 | 0.00 | 62 | 1014.6 |
| 20260505191603 | 66 | 212 | 3.5 | 9.6 | 0.00 | 0.00 | 0.00 | 61 | 1014.6 |
| 20260505191037 | 67 | 300 | 3.5 | 8.7 | 0.00 | 0.00 | 0.00 | 59 | 1014.6 |
| 20260505190536 | 68 | 271 | 3.5 | 13.9 | 0.00 | 0.00 | 0.00 | 58 | 1014.5 |
| 20260505190049 | 69 | 230 | 2.6 | 13.9 | 0.00 | 0.00 | 0.00 | 59 | 1014.5 |
| 20260505185540 | 68 | 181 | 4.3 | 13.9 | 0.00 | 0.00 | 0.00 | 60 | 1014.5 |
| 20260505185034 | 68 | 242 | 2.6 | 11.3 | 0.00 | 0.00 | 0.00 | 61 | 1014.4 |
| 20260505184544 | 68 | 189 | 4.3 | 11.3 | 0.00 | 0.00 | 0.00 | 62 | 1014.5 |
| 20260505184037 | 68 | 213 | 4.3 | 12.2 | 0.00 | 0.00 | 0.00 | 61 | 1014.4 |
| 20260505183534 | 68 | 191 | 5.2 | 12.2 | 0.00 | 0.00 | 0.00 | 60 | 1014.4 |
| 20260505183053 | 68 | 236 | 5.2 | 8.7 | 0.00 | 0.00 | 0.00 | 58 | 1014.4 |
| 20260505182534 | 68 | 209 | 3.5 | 7.8 | 0.00 | 0.00 | 0.00 | 57 | 1014.3 |
| 20260505182036 | 68 | 202 | 2.6 | 7.8 | 0.00 | 0.00 | 0.00 | 58 | 1014.3 |
| 20260505181543 | 68 | 167 | 1.7 | 7.8 | 0.00 | 0.00 | 0.00 | 59 | 1014.3 |
| 20260505181036 | 67 | 137 | 1.7 | 7.8 | 0.00 | 0.00 | 0.00 | 59 | 1014.3 |
| 20260505180537 | 67 | 226 | 1.7 | 7.0 | 0.00 | 0.00 | 0.00 | 59 | 1014.3 |
| 20260505180056 | 67 | 284 | 2.6 | 7.0 | 0.00 | 0.00 | 0.00 | 60 | 1014.4 |
| 20260505175534 | 68 | 155 | 1.7 | 7.0 | 0.00 | 0.00 | 0.00 | 59 | 1014.2 |
| 20260505175035 | 67 | 211 | 1.7 | 7.0 | 0.00 | 0.00 | 0.00 | 61 | 1014.4 |
| 20260505174546 | 67 | 215 | 1.7 | 6.1 | 0.00 | 0.00 | 0.00 | 61 | 1014.3 |
| 20260505174035 | 67 | 229 | 1.7 | 6.1 | 0.00 | 0.00 | 0.00 | 62 | 1014.3 |
| 20260505173534 | 67 | 214 | 1.7 | 7.0 | 0.00 | 0.00 | 0.00 | 64 | 1014.3 |
| 20260505173104 | 66 | 166 | 1.7 | 7.0 | 0.00 | 0.00 | 0.00 | 65 | 1014.3 |
| 20260505172535 | 66 | 227 | 0.9 | 7.8 | 0.00 | 0.00 | 0.00 | 65 | 1014.2 |
| 20260505172034 | 66 | 178 | 1.7 | 7.8 | 0.00 | 0.00 | 0.00 | 64 | 1014.2 |
| 20260505171558 | 66 | 158 | 1.7 | 5.2 | 0.00 | 0.00 | 0.00 | 67 | 1014.1 |
| 20260505171035 | 65 | 174 | 0.9 | 5.2 | 0.00 | 0.00 | 0.00 | 69 | 1014.1 |
| 20260505170535 | 65 | 215 | 1.7 | 5.2 | 0.00 | 0.00 | 0.00 | 68 | 1014.0 |
| 20260505170049 | 65 | 194 | 0.9 | 6.1 | 0.00 | 0.00 | 0.00 | 70 | 1014.1 |
| 20260505165534 | 64 | 162 | 1.7 | 6.1 | 0.00 | 0.00 | 0.00 | 70 | 1014.0 |
| 20260505165034 | 64 | 198 | 1.7 | 6.1 | 0.00 | 0.00 | 0.00 | 71 | 1014.1 |
| 20260505164549 | 63 | 202 | 0.0 | 5.2 | 0.00 | 0.00 | 0.00 | 73 | 1014.1 |
| 20260505164035 | 62 | 149 | 0.9 | 4.3 | 0.00 | 0.00 | 0.00 | 74 | 1014.0 |
| 20260505163537 | 62 | 275 | 1.7 | 5.2 | 0.00 | 0.00 | 0.00 | 74 | 1014.0 |
| 20260505163045 | 62 | 173 | 0.9 | 5.2 | 0.00 | 0.00 | 0.00 | 76 | 1014.0 |
| 20260505162534 | 61 | 161 | 1.7 | 5.2 | 0.00 | 0.00 | 0.00 | 78 | 1014.1 |
| 20260505162035 | 60 | 217 | 1.7 | 3.5 | 0.00 | 0.00 | 0.00 | 77 | 1014.0 |
| 20260505161554 | 60 | 0 | 0.0 | 3.5 | 0.00 | 0.00 | 0.00 | 78 | 1014.1 |
| 20260505161035 | 60 | 274 | 0.9 | 3.5 | 0.00 | 0.00 | 0.00 | 78 | 1013.9 |
| 20260505160538 | 60 | 0 | 0.0 | 3.5 | 0.00 | 0.00 | 0.00 | 77 | 1013.9 |
| 20260505153043 | 57 | 0 | 0.0 | 2.6 | 0.00 | 0.00 | 0.00 | 85 | 1013.8 |
| 20260505152535 | 57 | 90 | 0.9 | 2.6 | 0.00 | 0.00 | 0.00 | 86 | 1013.8 |
| 20260505152034 | 56 | 0 | 0.0 | 2.6 | 0.00 | 0.00 | 0.00 | 88 | 1013.8 |
| 20260505151548 | 56 | 90 | 0.0 | 2.6 | 0.00 | 0.00 | 0.00 | 88 | 1013.6 |
| 20260505151034 | 55 | 0 | 0.0 | 2.6 | 0.00 | 0.00 | 0.00 | 88 | 1013.6 |
| 20260505150535 | 55 | 0 | 0.0 | 2.6 | 0.00 | 0.00 | 0.00 | 87 | 1013.7 |
| 20260505150105 | 55 | 90 | 0.9 | 2.6 | 0.00 | 0.00 | 0.00 | 88 | 1013.8 |
| 20260505140538 | 51 | 0 | 0.0 | 1.7 | 0.00 | 0.00 | 0.00 | 95 | 1013.4 |
| 20260505125037 | 50 | 330 | 0.9 | 1.7 | 0.00 | 0.00 | 0.00 | 95 | 1013.1 |
| 20260505124556 | 50 | 330 | 0.9 | 2.6 | 0.00 | 0.00 | 0.00 | 95 | 1013.0 |
| 20260505124034 | 50 | 330 | 0.9 | 2.6 | 0.00 | 0.00 | 0.00 | 95 | 1013.1 |
| 20260505123536 | 50 | 330 | 0.0 | 2.6 | 0.00 | 0.00 | 0.00 | 96 | 1013.1 |
| 20260505123055 | 50 | 330 | 0.9 | 1.7 | 0.00 | 0.00 | 0.00 | 95 | 1013.3 |
| 20260505122534 | 50 | 330 | 0.9 | 1.7 | 0.00 | 0.00 | 0.00 | 95 | 1013.2 |
| 20260505122034 | 50 | 330 | 0.0 | 1.7 | 0.00 | 0.00 | 0.00 | 95 | 1013.1 |
| 20260505121620 | 50 | 0 | 0.0 | 1.7 | 0.00 | 0.00 | 0.00 | 95 | 1013.2 |
| 20260505121034 | 50 | 330 | 0.0 | 0.9 | 0.00 | 0.00 | 0.00 | 95 | 1013.3 |
| 20260505120535 | 50 | 0 | 0.0 | 0.9 | 0.00 | 0.00 | 0.00 | 95 | 1013.2 |
| 20260505120053 | 49 | 330 | 0.0 | 0.9 | 0.00 | 0.00 | 0.00 | 95 | 1013.2 |
| 20260505115535 | 49 | 330 | 0.0 | 1.7 | 0.00 | 0.00 | 0.00 | 95 | 1013.1 |
| 20260505115037 | 49 | 330 | 0.0 | 1.7 | 0.00 | 0.00 | 0.00 | 95 | 1013.2 |
| 20260505114550 | 49 | 330 | 0.0 | 1.7 | 0.00 | 0.00 | 0.00 | 95 | 1013.1 |
| 20260505114034 | 49 | 330 | 0.0 | 2.6 | 0.00 | 0.00 | 0.00 | 95 | 1013.2 |
| 20260505113535 | 49 | 330 | 0.9 | 2.6 | 0.00 | 0.00 | 0.00 | 95 | 1013.2 |
| 20260505113105 | 49 | 330 | 0.9 | 2.6 | 0.00 | 0.00 | 0.00 | 94 | 1013.2 |
| 20260505112535 | 49 | 0 | 0.0 | 2.6 | 0.00 | 0.00 | 0.00 | 94 | 1013.2 |
| 20260505112037 | 49 | 330 | 0.9 | 2.6 | 0.00 | 0.00 | 0.00 | 94 | 1013.2 |
| 20260505111556 | 49 | 330 | 0.9 | 1.7 | 0.00 | 0.00 | 0.00 | 94 | 1013.2 |
| 20260505111041 | 49 | 330 | 0.9 | 1.7 | 0.00 | 0.00 | 0.00 | 93 | 1013.2 |
| 20260505110539 | 49 | 0 | 0.9 | 1.7 | 0.00 | 0.00 | 0.00 | 93 | 1013.3 |